Weather History for Blue Canyon, CA

Change the Weather History Date:

Sunday, January 13, 2013

  Actual Average Record
Temperature  
Mean Temperature 24 °F -  
Max Temperature 30 °F 47 °F 69 °F (2009)
Min Temperature 17 °F 35 °F 8 °F (1997)
Degree Days  
Heating Degree Days 42    
Moisture  
Dew Point -5 °F    
Average Humidity 31    
Maximum Humidity 47    
Minimum Humidity 18    
Precipitation  
Precipitation 0.00 in - - ()
Sea Level Pressure  
Sea Level Pressure 30.16 in    
Wind  
Wind Speed 5 mph (NNE)    
Max Wind Speed 9 mph    
Max Gust Speed 17 mph    
Visibility 10 miles    
Events      
Averages and records for this station are not official NWS values.
T = Trace of Precipitation, MM = Missing Value Source: NWS Daily Summary

Daily Weather History Graph

Daily Weather History Graph

Search for Another Location

Airport:

Trip Planner

Search our weather history database for the weather conditions in past years. The results will help you decide how hot, cold, wet, or windy it might be!

Date:

Astronomy

Jan. 13, 2013 Rise Set
Actual Time 7:21 AM PST 5:02 PM PST
Civil Twilight 6:51 AM PST 5:31 PM PST
Nautical Twilight 6:18 AM PST 6:04 PM PST
Astronomical Twilight 5:46 AM PST 6:37 PM PST
Moon 8:24 AM PST (1/13) 7:45 PM PST (1/13)
Length of Visible Light 10h 39m
Length of Day
9h 40m
Waxing Crescent, 6% of the Moon is Illuminated
Jan 13
Waxing Crescent
Jan 18
First Quarter
Jan 26
Full
Feb 3
Last Quarter
Feb 9
New

Hourly Weather History & Observations

Time (PST) Temp. Windchill Dew Point Humidity Pressure Visibility Wind Dir Wind Speed Gust Speed Precip Events Conditions
12:52 AM 21.0 °F 11.4 °F -6.0 °F 30% 30.12 in 10.0 mi ENE 8.1 mph 17.3 mph N/A   Clear
1:52 AM 21.0 °F 11.4 °F -6.0 °F 30% 30.14 in 10.0 mi ENE 8.1 mph - N/A   Clear
2:52 AM 19.9 °F 12.1 °F -5.1 °F 33% 30.14 in 10.0 mi East 5.8 mph - N/A   Clear
3:52 AM 24.1 °F - -13.0 °F 19% 30.13 in 10.0 mi Calm Calm - N/A   Clear
4:52 AM 23.0 °F 15.8 °F -9.0 °F 24% 30.13 in 10.0 mi NE 5.8 mph - N/A   Clear
5:52 AM 21.0 °F 14.6 °F -7.1 °F 29% 30.17 in 10.0 mi NE 4.6 mph - N/A   Clear
6:52 AM 24.1 °F 18.2 °F -9.0 °F 23% 30.15 in 10.0 mi NE 4.6 mph - N/A   Clear
7:52 AM 24.1 °F 19.7 °F -11.0 °F 21% 30.20 in 10.0 mi North 3.5 mph - N/A   Clear
8:52 AM 27.0 °F - -11.9 °F 18% 30.18 in 10.0 mi Calm Calm - N/A   Clear
9:52 AM 26.1 °F 21.9 °F -9.0 °F 21% 30.20 in 10.0 mi West 3.5 mph - N/A   Clear
10:52 AM 27.0 °F 23.0 °F -0.9 °F 30% 30.18 in 10.0 mi West 3.5 mph - N/A   Clear
11:52 AM 28.0 °F 21.7 °F 3.9 °F 36% 30.14 in 10.0 mi West 5.8 mph - N/A   Clear
12:52 PM 30.9 °F 26.2 °F 1.0 °F 28% 30.13 in 10.0 mi NNW 4.6 mph - N/A   Clear
1:52 PM 30.9 °F 25.2 °F -5.1 °F 21% 30.14 in 10.0 mi Variable 5.8 mph - N/A   Clear
2:52 PM 28.0 °F 20.8 °F -4.0 °F 25% 30.16 in 10.0 mi Variable 6.9 mph - N/A   Clear
3:52 PM 25.0 °F 17.1 °F -0.9 °F 33% 30.16 in 10.0 mi Variable 6.9 mph 17.3 mph N/A   Clear
4:52 PM 21.9 °F 11.7 °F -2.0 °F 35% 30.17 in 10.0 mi NNE 9.2 mph - N/A   Clear
5:52 PM 19.9 °F 13.4 °F -0.9 °F 40% 30.19 in 10.0 mi NE 4.6 mph - N/A   Clear
6:52 PM 17.1 °F - -0.0 °F 47% 30.19 in 10.0 mi Calm Calm - N/A   Clear
7:52 PM 19.0 °F 12.3 °F -2.9 °F 38% 30.19 in 10.0 mi ENE 4.6 mph - N/A   Clear
8:52 PM 19.0 °F - -2.9 °F 38% 30.17 in 10.0 mi Calm Calm - N/A   Clear
9:52 PM 19.0 °F - -2.9 °F 38% 30.16 in 10.0 mi Calm Calm - N/A   Clear
10:52 PM 19.0 °F 13.9 °F -2.0 °F 40% 30.17 in 10.0 mi Variable 3.5 mph - N/A   Clear
11:52 PM 19.0 °F 13.9 °F -2.0 °F 40% 30.17 in 10.0 mi Variable 3.5 mph - N/A   Clear